IWG110hz,2017-06-20T14:08:40.201, 26.078796, -80.154190,,  -15.8,  -76.0,,  0.0,  1.9,  3.8,0.005,    0.0, 122.7, 122.7,   0.0,  -0.7,  -0.6,,,  27.2, -81.8,  27.2,1016.036,,1018.017,,,, 44.0, 47.2,  82.5, -40.1
IWG110hz,2017-06-20T14:08:50.201, 26.078796, -80.154190,,  -15.8,  -77.0,,  0.0,  4.1,  7.9,0.012,    0.0, 122.7, 122.7,   0.0,  -0.7,  -0.6,,,  27.2, -81.6,  27.2,1016.073,,1017.895,,,, 44.0, 47.2,  82.5, -40.1
IWG110hz,2017-06-20T14:09:00.200, 26.078796, -80.154190,,  -15.6,  -77.0,,  0.0,  5.4,  9.7,0.015,    0.0, 122.7, 122.7,   0.0,  -0.7,  -0.6,,,  27.0, -81.6,  27.2,1016.073,,1017.448,,,, 43.9, 47.2,  82.5, -40.1
IWG110hz,2017-06-20T14:09:10.200, 26.078796, -80.154190,,  -15.4,  -76.0,,  0.0,  2.8,  5.1,0.008,   -0.0, 122.7, 122.7,   0.0,  -0.7,  -0.6,,,  26.8, -81.9,  26.8,1016.036,,1017.285,,,, 43.9, 47.3,  82.5, -40.1
IWG110hz,2017-06-20T14:09:20.201, 26.078796, -80.154190,,  -15.4,  -77.0,,  0.0,  5.7,  9.8,0.016,   -0.0, 122.7, 122.7,   0.0,  -0.7,  -0.6,,,  27.0, -81.4,  27.0,1016.073,,1016.959,,,, 43.9, 47.3,  82.5, -40.1
IWG110hz,2017-06-20T14:09:30.200, 26.078796, -80.154190,,  -15.9,  -76.0,,  0.0,  3.2,  6.1,0.009,    0.0, 122.7, 122.7,   0.0,  -0.7,  -0.6,,,  26.8, -81.7,  26.8,1016.036,,1016.675,,,, 43.8, 47.4,  82.6, -40.1
IWG110hz,2017-06-20T14:09:40.202, 26.078796, -80.154190,,  -15.8,  -76.0,,  0.0,  3.8,  7.2,0.011,   -0.0, 122.7, 122.7,   0.0,  -0.7,  -0.6,,,  27.0, -81.6,  27.0,1016.036,,1016.634,,,, 43.8, 47.4,  82.6, -40.1
IWG110hz,2017-06-20T14:09:50.201, 26.078796, -80.154190,,  -15.7,  -77.0,,  0.0,  1.9,  3.8,0.005,   -0.0, 122.7, 122.7,   0.0,  -0.7,  -0.6,,,  27.0, -80.4,  27.0,1016.073,,1016.471,,,, 43.8, 47.4,  82.6, -40.1
IWG110hz,2017-06-20T14:10:00.200, 26.078796, -80.154190,,  -15.4,  -78.0,,  0.0,  2.5,  4.4,0.007,   -0.0, 122.7, 122.7,   0.0,  -0.8,  -0.6,,,  27.0, -80.4,  27.0,1016.109,,1016.471,,,, 43.7, 47.5,  82.6, -40.0
IWG110hz,2017-06-20T14:10:10.201, 26.078796, -80.154190,,  -14.7,  -78.0,,  0.0,  2.8,  5.5,0.008,    0.0, 122.7, 122.7,   0.0,  -0.7,  -0.6,,,  27.0, -80.9,  27.0,1016.109,,1016.105,,,, 43.7, 47.5,  82.6, -40.0
IWG110hz,2017-06-20T14:10:20.200, 26.078796, -80.154190,,  -14.3,  -78.0,,  0.0,  3.2,  5.9,0.009,    0.0, 122.7, 122.7,   0.0,  -0.7,  -0.6,,,  27.0, -80.5,  27.0,1016.109,,1016.349,,,, 43.6, 47.5,  82.6, -40.0
IWG110hz,2017-06-20T14:10:30.202, 26.078796, -80.154190,,  -13.7,  -78.0,,  0.0,  4.4,  8.2,0.013,   -0.0, 122.7, 122.7,   0.0,  -0.7,  -0.6,,,  26.5, -80.6,  26.5,1016.109,,1016.024,,,, 43.6, 47.6,  82.6, -40.0
IWG110hz,2017-06-20T14:10:40.200, 26.078796, -80.154190,,  -13.1,  -77.0,,  0.0,  2.5,  4.8,0.007,    0.0, 122.7, 122.7,   0.0,  -0.7,  -0.6,,,  26.5, -80.6,  26.5,1016.073,,1015.901,,,, 43.6, 47.6,  82.7, -40.0
IWG110hz,2017-06-20T14:10:50.200, 26.078796, -80.154190,,  -13.3,  -78.0,,  0.0,  2.5,  4.9,0.007,   -0.0, 122.7, 122.7,   0.0,  -0.7,  -0.6,,,  26.8, -80.6,  26.8,1016.109,,1015.901,,,, 43.5, 47.6,  82.7, -40.0
IWG110hz,2017-06-20T14:11:00.201, 26.078968, -80.154362,,  -13.8,  -77.0,,  0.3,  2.8,  5.6,0.008,   -0.0, 122.7, 122.7,   0.0,  -0.7,  -0.6,,,  27.2, -80.7,  27.2,1016.073,,1016.064,,,, 43.5, 47.7,  82.7, -40.0
IWG110hz,2017-06-20T14:11:10.201, 26.079140, -80.154533,,  -14.0,  -76.0,,  0.1,  7.9, 14.4,0.023,    0.0, 122.7, 122.7,   0.0,  -0.7,  -0.6,,,  27.0, -80.8,  27.0,1016.036,,1015.698,,,, 43.5, 47.7,  82.7, -39.9
IWG110hz,2017-06-20T14:11:20.201, 26.079140, -80.154533,,  -14.2,  -77.0,,  0.0,  3.2,  6.1,0.009,   -0.0, 122.7, 122.7,   0.0,  -0.7,  -0.6,,,  27.0, -80.4,  27.0,1016.073,,1016.064,,,, 43.4, 47.8,  82.7, -39.9
IWG110hz,2017-06-20T14:11:30.201, 26.079140, -80.154533,,  -14.5,  -76.0,,  0.0,  5.7,  9.8,0.016,    0.0, 122.7, 122.7,   0.0,  -0.7,  -0.6,,,  27.0, -80.4,  27.0,1016.036,,1016.064,,,, 43.4, 47.8,  82.7, -39.9
IWG110hz,2017-06-20T14:11:40.200, 26.079140, -80.154533,,  -14.8,  -77.0,,  0.0,  5.4,  9.5,0.015,   -0.0, 122.7, 122.7,   0.0,  -0.7,  -0.6,,,  27.0, -80.5,  27.0,1016.073,,1015.942,,,, 43.4, 47.8,  82.7, -39.9
IWG110hz,2017-06-20T14:11:50.202, 26.078968, -80.154362,,  -15.0,  -76.0,,  0.0,  4.8,  8.9,0.014,    0.0, 122.7, 122.7,   0.0,  -0.7,  -0.6,,,  27.0, -80.5,  27.0,1016.036,,1015.535,,,, 43.3, 47.9,  82.7, -39.9
IWG110hz,2017-06-20T14:12:00.201, 26.078968, -80.154362,,  -14.8,  -76.0,,  0.0,  4.7,  8.9,0.014,   -0.0, 122.7, 122.7,   0.0,  -0.7,  -0.6,,,  26.8, -79.7,  26.8,1016.036,,1015.698,,,, 43.3, 47.9,  82.8, -39.9
IWG110hz,2017-06-20T14:12:10.201, 26.078968, -80.154362,,  -15.8,  -76.0,,  0.0,  5.4,  9.4,0.015,   -0.0, 122.7, 122.7,   0.0,  -0.7,  -0.6,,,  27.0, -79.7,  27.0,1016.036,,1015.698,,,, 43.2, 47.9,  82.8, -39.9
IWG110hz,2017-06-20T14:12:20.201, 26.078968, -80.154362,,  -17.9,  -77.0,,  0.0,  3.2,  5.9,0.009,   -0.0, 122.7, 122.7,   0.0,  -0.7,  -0.6,,,  27.0, -69.9,  27.0,1016.073,,1015.901,,,, 43.2, 48.0,  82.8, -39.8
IWG110hz,2017-06-20T14:12:30.200, 26.078968, -80.154362,,  -17.0,  -77.0,,  0.0,  4.1,  7.4,0.012,   -0.0, 122.7, 122.7,   0.0,  -0.7,  -0.6,,,  27.0, -65.6,  27.0,1016.073,,1016.186,,,, 43.2, 48.0,  82.8, -39.8
IWG110hz,2017-06-20T14:12:40.202, 26.078796, -80.154362,,  -16.6,  -76.0,,  0.0,  2.2,  4.3,0.006,    0.0, 122.7, 122.7,   0.0,  -0.7,  -0.6,,,  27.0, -72.3,  27.0,1016.036,,1016.186,,,, 43.1, 48.1,  82.8, -39.8
IWG110hz,2017-06-20T14:12:50.201, 26.078796, -80.154362,,  -17.0,  -76.0,,  0.0,  4.4,  8.4,0.013,    0.0, 122.7, 122.7,   0.0,  -0.7,  -0.6,,,  27.0, -72.3,  27.0,1016.036,,1016.186,,,, 43.1, 48.1,  82.8, -39.8
IWG110hz,2017-06-20T14:13:00.201, 26.078796, -80.154362,,  -17.5,  -76.0,,  0.0,  3.2,  6.1,0.009,    0.0, 122.7, 122.7,   0.0,  -0.7,  -0.6,,,  26.8, -79.4,  26.8,1016.036,,1016.308,,,, 43.1, 48.1,  82.8, -39.8
IWG110hz,2017-06-20T14:13:10.201, 26.078796, -80.154362,,  -17.8,  -77.0,,  0.0,  2.8,  6.4,0.008,    0.0, 122.7, 122.7,   0.0,  -0.7,  -0.6,,,  27.0, -80.4,  27.0,1016.073,,1016.227,,,, 43.0, 48.2,  82.9, -39.8
IWG110hz,2017-06-20T14:13:20.201, 26.078796, -80.154362,,  -18.1,  -76.0,,  0.0,  4.1,  7.2,0.012,    0.0, 122.7, 122.7,   0.0,  -0.7,  -0.6,,,  27.0, -80.4,  27.0,1016.036,,1015.779,,,, 43.0, 48.2,  82.9, -39.8
IWG110hz,2017-06-20T14:13:30.202, 26.078796, -80.154362,,  -18.6,  -77.0,,  0.0,  4.1,  7.7,0.012,   -0.0, 122.7, 122.7,   0.0,  -0.7,  -0.6,,,  27.0, -80.4,  27.0,1016.073,,1015.779,,,, 42.9, 48.2,  82.9, -39.8
IWG110hz,2017-06-20T14:13:40.202, 26.078796, -80.154190,,  -18.6,  -77.0,,  0.0,  0.6,  1.8,0.002,    0.0, 122.7, 122.7,   0.0,  -0.7,  -0.6,,,  27.2, -80.6,  27.2,1016.073,,1015.820,,,, 42.9, 48.3,  82.9, -39.7
IWG110hz,2017-06-20T14:13:50.201, 26.078796, -80.154190,,  -17.6,  -77.0,,  0.0,  2.2,  4.4,0.006,    0.0, 122.7, 122.7,   0.0,  -0.7,  -0.6,,,  27.5, -80.5,  27.5,1016.073,,1016.024,,,, 42.9, 48.3,  82.9, -39.7
IWG110hz,2017-06-20T14:14:00.202, 26.078796, -80.154190,,  -16.9,  -78.0,,  0.0,  1.9,  3.6,0.005,   -0.0, 122.7, 122.7,   0.0,  -0.7,  -0.6,,,  27.5, -85.4,  27.5,1016.109,,1015.779,,,, 42.8, 48.4,  82.9, -39.7
IWG110hz,2017-06-20T14:14:10.202, 26.078796, -80.154190,,  -17.3,  -77.0,,  0.0,  0.0,  0.5,0.000,    0.0, 122.7, 122.7,   0.0,  -0.7,  -0.6,,,  27.5, -84.7,  27.5,1016.073,,1015.617,,,, 42.8, 48.4,  82.9, -39.7
IWG110hz,2017-06-20T14:14:20.201, 26.078796, -80.154190,,  -17.6,  -78.0,,  0.0,  3.2,  6.4,0.009,    0.0, 122.7, 122.7,   0.0,  -0.7,  -0.6,,,  27.5, -84.7,  27.5,1016.109,,1015.617,,,, 42.8, 48.4,  82.9, -39.7
IWG110hz,2017-06-20T14:14:30.202, 26.078796, -80.154190,,  -17.8,  -78.0,,  0.0,  2.2,  4.6,0.006,    0.0, 122.7, 122.7,   0.0,  -0.7,  -0.6,,,  27.2, -84.5,  27.2,1016.109,,1015.617,,,, 42.7, 48.5,  83.0, -39.7
IWG110hz,2017-06-20T14:14:40.200, 26.078796, -80.154190,,  -17.6,  -77.0,,  0.0,  1.3,  2.5,0.004,    0.0, 122.7, 122.7,   0.0,  -0.7,  -0.6,,,  27.0, -84.4,  27.0,1016.073,,1015.332,,,, 42.7, 48.5,  83.0, -39.7
IWG110hz,2017-06-20T14:14:50.202, 26.078796, -80.154190,,  -17.3,  -78.0,,  0.0,  2.2,  4.5,0.006,   -0.0, 122.7, 122.7,   0.0,  -0.7,  -0.6,,,  27.2, -84.2,  27.2,1016.109,,1015.495,,,, 42.6, 48.5,  83.0, -39.6
IWG110hz,2017-06-20T14:15:00.201, 26.078796, -80.154190,,  -17.1,  -78.0,,  0.0,  1.3,  2.3,0.004,   -0.0, 122.7, 122.7,   0.0,  -0.7,  -0.6,,,  27.0, -84.2,  27.0,1016.109,,1015.495,,,, 42.6, 48.6,  83.0, -39.6
IWG110hz,2017-06-20T14:15:10.201, 26.078796, -80.154190,,  -16.9,  -78.0,,  0.0,  2.5,  4.8,0.007,   -0.0, 122.7, 122.7,   0.0,  -0.7,  -0.6,,,  27.0, -84.4,  27.0,1016.109,,1015.250,,,, 42.6, 48.6,  83.0, -39.6
IWG110hz,2017-06-20T14:15:20.202, 26.078796, -80.154190,,  -17.1,  -78.0,,  0.0,  2.8,  5.7,0.008,   -0.0, 122.7, 122.7,   0.0,  -0.7,  -0.6,,,  27.2, -84.3,  27.2,1016.109,,1015.495,,,, 42.5, 48.7,  83.0, -39.6
IWG110hz,2017-06-20T14:15:30.201, 26.078796, -80.154190,,  -17.9,  -79.0,,  0.0,  0.6,  1.7,0.002,   -0.0, 122.7, 122.7,   0.0,  -0.7,  -0.6,,,  27.5, -84.0,  27.5,1016.146,,1015.617,,,, 42.5, 48.7,  83.0, -39.6
IWG110hz,2017-06-20T14:15:40.200, 26.078796, -80.154190,,  -18.5,  -78.0,,  0.0,  2.8,  5.5,0.008,    0.0, 122.7, 122.7,   0.0,  -0.7,  -0.6,,,  27.5, -84.0,  27.5,1016.109,,1015.617,,,, 42.5, 48.7,  83.1, -39.6
IWG110hz,2017-06-20T14:15:50.201, 26.078796, -80.154190,,  -17.8,  -76.0,,  0.0,  6.0, 11.1,0.017,    0.0, 122.7, 122.7,   0.0,  -0.7,  -0.6,,,  27.0, -84.0,  27.0,1016.036,,1015.617,,,, 42.4, 48.8,  83.1, -39.6
IWG110hz,2017-06-20T14:16:00.201, 26.078796, -80.154190,,  -17.4,  -77.0,,  0.0,  3.5,  6.4,0.010,    0.0, 122.7, 122.7,   0.0,  -0.7,  -0.6,,,  27.0, -84.0,  27.0,1016.073,,1015.373,,,, 42.4, 48.8,  83.1, -39.5
IWG110hz,2017-06-20T14:16:10.202, 26.078796, -80.154190,,  -17.6,  -78.0,,  0.0,  4.8,  9.0,0.014,   -0.0, 122.7, 122.7,   0.0,  -0.7,  -0.6,,,  27.0, -83.4,  27.0,1016.109,,1015.576,,,, 42.4, 48.8,  83.1, -39.5
IWG110hz,2017-06-20T14:16:20.201, 26.078796, -80.154190,,  -17.7,  -78.0,,  0.0,  4.4,  8.4,0.013,    0.0, 122.7, 122.7,   0.0,  -0.7,  -0.6,,,  26.8, -83.4,  26.8,1016.109,,1015.576,,,, 42.3, 48.9,  83.1, -39.5
IWG110hz,2017-06-20T14:16:30.202, 26.078796, -80.154190,,  -17.5,  -78.0,,  0.0,  3.2,  6.2,0.009,   -0.0, 122.7, 122.7,   0.0,  -0.7,  -0.6,,,  26.8, -83.8,  26.8,1016.109,,1015.250,,,, 42.3, 48.9,  83.1, -39.5
IWG110hz,2017-06-20T14:16:40.200, 26.078796, -80.154190,,  -17.2,  -77.0,,  0.0,  2.8,  5.2,0.008,   -0.0, 122.7, 122.7,   0.0,  -0.7,  -0.6,,,  26.8, -84.1,  26.8,1016.073,,1015.250,,,, 42.2, 48.9,  83.1, -39.5
IWG110hz,2017-06-20T14:16:50.200, 26.078796, -80.154190,,  -17.0,  -78.0,,  0.0,  1.9,  3.8,0.005,   -0.0, 122.7, 122.7,   0.0,  -0.7,  -0.6,,,  27.0, -84.4,  27.0,1016.109,,1015.576,,,, 42.2, 49.0,  83.1, -39.5
IWG110hz,2017-06-20T14:17:00.201, 26.078796, -80.154190,,  -17.2,  -77.0,,  0.0,  7.9, 14.0,0.023,    0.0, 122.7, 122.7,   0.0,  -0.7,  -0.6,,,  26.8, -84.6,  26.8,1016.073,,1015.657,,,, 42.2, 49.0,  83.2, -39.5
IWG110hz,2017-06-20T14:17:10.201, 26.078796, -80.154190,,  -17.3,  -78.0,,  0.0,  5.7, 10.2,0.016,   -0.0, 122.7, 122.7,   0.0,  -0.7,  -0.6,,,  26.5, -84.6,  26.5,1016.109,,1015.657,,,, 42.1, 49.1,  83.2, -39.4
IWG110hz,2017-06-20T14:17:20.202, 26.078796, -80.154190,,  -16.9,  -77.0,,  0.0,  6.0, 10.8,0.017,   -0.0, 122.7, 122.7,   0.0,  -0.7,  -0.6,,,  26.8, -84.4,  26.8,1016.073,,1015.291,,,, 42.1, 49.1,  83.2, -39.4
IWG110hz,2017-06-20T14:17:30.200, 26.078796, -80.154190,,  -17.6,  -77.0,,  0.0,  5.7, 10.0,0.016,   -0.0, 122.7, 122.7,  -0.0,  -0.7,  -0.6,,,  27.0, -84.5,  27.0,1016.073,,1015.495,,,, 42.1, 49.1,  83.2, -39.4
IWG110hz,2017-06-20T14:17:40.200, 26.078796, -80.154190,,  -18.7,  -77.0,,  0.0,  6.7, 11.2,0.019,   -0.0, 122.7, 122.7,   0.0,  -0.7,  -0.6,,,  27.0, -84.8,  27.0,1016.073,,1015.535,,,, 42.0, 49.2,  83.2, -39.4
IWG110hz,2017-06-20T14:17:50.201, 26.078796, -80.154190,,  -19.1,  -77.0,,  0.0,  4.1,  7.6,0.012,   -0.0, 122.7, 122.7,   0.0,  -0.7,  -0.6,,,  26.5, -84.8,  26.5,1016.073,,1015.535,,,, 42.0, 49.2,  83.2, -39.4
IWG110hz,2017-06-20T14:18:00.201, 26.078796, -80.154190,,  -19.0,  -77.0,,  0.0,  7.9, 13.8,0.023,   -0.0, 122.7, 122.7,   0.0,  -0.7,  -0.6,,,  27.0, -84.2,  27.0,1016.073,,1015.535,,,, 42.0, 49.2,  83.2, -39.4
IWG110hz,2017-06-20T14:18:10.201, 26.078796, -80.154190,,  -18.8,  -78.0,,  0.0,  3.8,  6.8,0.011,   -0.0, 122.7, 122.7,   0.0,  -0.7,  -0.6,,,  26.5, -84.7,  26.5,1016.109,,1015.861,,,, 42.0, 49.2,  83.2, -39.4
IWG110hz,2017-06-20T14:18:20.202, 26.078796, -80.154190,,  -19.2,  -78.0,,  0.0,  3.5,  6.5,0.010,    0.0, 122.7, 122.7,   0.0,  -0.7,  -0.6,,,  26.5, -84.7,  26.5,1016.109,,1015.495,,,, 42.0, 49.2,  83.2, -39.4
IWG110hz,2017-06-20T14:18:30.201,,,,  -19.3,  -79.0,,  0.0,  3.5,  6.4,0.010,   -0.0, 122.7, 122.7,   0.0,  -0.7,  -0.6,,,  26.8, -84.7,  26.8,1016.146,,1015.495,,,,,,,
IWG110hz,2017-06-20T14:18:40.202,,,,  -19.2,  -78.0,,  0.0,  4.7,  8.8,0.014,    0.0, 122.7, 122.7,   0.0,  -0.7,  -0.6,,,  26.8, -84.3,  26.8,1016.109,,1015.861,,,,,,,
IWG110hz,2017-06-20T14:18:50.200,,,,  -19.2,  -78.0,,  0.0,  4.4,  8.2,0.013,    0.0, 122.7, 122.7,   0.0,  -0.7,  -0.6,,,  26.8, -84.7,  26.8,1016.109,,1015.495,,,,,,,
IWG110hz,2017-06-20T14:19:00.202,,,,  -18.9,  -78.0,,  0.0,  5.7,  9.9,0.016,    0.0, 122.7, 122.7,   0.0,  -0.7,  -0.6,,,  26.8, -83.9,  26.8,1016.109,,1015.657,,,,,,,
IWG110hz,2017-06-20T14:19:10.202, 26.078796, -80.154190,,  -18.9,  -78.0,,  0.0,  3.2,  6.4,0.009,   -0.0, 122.7, 122.7,   0.0,  -0.7,  -0.6,,,  26.8, -83.9,  26.8,1016.109,,1015.657,,,, 41.7, 49.5,  83.3, -39.3
IWG110hz,2017-06-20T14:19:20.201, 26.078796, -80.154190,,  -19.0,  -78.0,,  0.0,  2.8,  5.5,0.008,   -0.0, 122.7, 122.7,   0.0,  -0.7,  -0.6,,,  27.0, -83.8,  27.0,1016.109,,1015.739,,,, 41.6, 49.6,  83.3, -39.2
IWG110hz,2017-06-20T14:19:30.202, 26.078796, -80.154190,,  -19.2,  -78.0,,  0.0,  5.4,  9.2,0.015,   -0.0, 122.7, 122.7,   0.0,  -0.7,  -0.6,,,  27.0, -83.7,  27.0,1016.109,,1015.576,,,, 41.6, 49.6,  83.4, -39.2
IWG110hz,2017-06-20T14:19:40.201, 26.078796, -80.154190,,  -18.9,  -77.0,,  0.0,  1.9,  3.6,0.005,    0.0, 122.7, 122.7,   0.0,  -0.7,  -0.6,,,  27.0, -84.6,  27.0,1016.073,,1015.739,,,, 41.6, 49.6,  83.4, -39.2
IWG110hz,2017-06-20T14:19:50.201, 26.078796, -80.154190,,  -18.3,  -79.0,,  0.0,  3.8,  7.0,0.011,   -0.0, 122.7, 122.7,   0.0,  -0.7,  -0.6,,,  27.0, -84.6,  27.0,1016.146,,1015.739,,,, 41.5, 49.7,  83.4, -39.2
IWG110hz,2017-06-20T14:20:00.202, 26.078796, -80.154190,,  -18.2,  -78.0,,  0.0,  3.5,  6.4,0.010,    0.0, 122.7, 122.7,   0.0,  -0.7,  -0.6,,,  26.8, -84.7,  26.8,1016.109,,1015.942,,,, 41.5, 49.7,  83.4, -39.2
IWG110hz,2017-06-20T14:20:10.200, 26.078796, -80.154190,,  -18.9,  -78.0,,  0.0,  5.4,  9.7,0.015,   -0.0, 122.7, 122.7,   0.0,  -0.7,  -0.6,,,  27.0, -84.9,  27.0,1016.109,,1016.186,,,, 41.5, 49.7,  83.4, -39.2
IWG110hz,2017-06-20T14:20:20.201, 26.078796, -80.154190,,  -19.4,  -78.0,,  0.0,  3.2,  6.0,0.009,   -4.9, 122.7, 122.7,   0.0,  -0.7,  -0.6,,,  27.0, -84.6,  27.0,1016.109,,1016.024,,,, 41.4, 49.8,  83.4, -39.2
IWG110hz,2017-06-20T14:20:30.201, 26.078796, -80.154190,,  -19.2,  -79.0,,  0.0,  2.8,  5.4,0.008,    0.0, 122.7, 122.7,   0.0,  -0.7,  -0.6,,,  27.2, -84.8,  27.0,1016.146,,1016.634,,,, 41.4, 49.8,  83.4, -39.2
IWG110hz,2017-06-20T14:20:40.200, 26.078796, -80.154190,,  -18.6,  -78.0,,  0.0,  4.1,  7.7,0.012,   -0.0, 122.7, 122.7,   0.0,  -0.7,  -0.6,,,  26.5, -84.8,  26.8,1016.109,,1016.634,,,, 41.4, 49.8,  83.4, -39.2
IWG110hz,2017-06-20T14:20:50.202, 26.078796, -80.154190,,  -19.2,  -78.0,,  0.0,  4.7,  9.0,0.014,    0.0, 122.7, 122.7,   0.0,  -0.7,  -0.6,,,  26.8, -69.8,  26.8,1016.109,,1017.163,,,, 41.4, 49.8,  83.4, -39.2
IWG110hz,2017-06-20T14:21:00.200, 26.078796, -80.154190,,  -20.0,  -77.0,,  0.0,  4.4,  8.1,0.013,    0.0, 122.7, 122.7,   0.0,  -0.7,  -0.6,,,  26.5, -84.7,  26.5,1016.073,,1016.919,,,, 41.4, 49.8,  83.4, -39.2
IWG110hz,2017-06-20T14:21:10.201, 26.078796, -80.154190,,  -19.5,  -78.0,,  0.0,  3.2,  5.8,0.009,    0.0, 122.7, 122.7,   0.0,  -0.7,  -0.6,,,  26.5, -84.8,  26.5,1016.109,,1017.570,,,, 41.4, 49.8,  83.4, -39.2
IWG110hz,2017-06-20T14:21:20.201, 26.078796, -80.154190,,  -18.6,  -78.0,,  0.0,  3.8,  7.0,0.011,   -0.0, 122.7, 122.7,   0.0,  -0.7,  -0.6,,,  26.8, -84.8,  26.8,1016.109,,1017.570,,,, 41.2, 50.0,  83.5, -39.1
IWG110hz,2017-06-20T14:21:30.200, 26.078796, -80.154190,,  -18.4,  -78.0,,  0.0,  3.8,  7.2,0.011,    0.0, 122.7, 122.7,   0.0,  -0.7,  -0.6,,,  26.5, -85.1,  26.5,1016.109,,1017.895,,,, 41.2, 50.0,  83.5, -39.1
IWG110hz,2017-06-20T14:21:40.202, 26.078796, -80.154190,,  -18.9,  -78.0,,  0.0,  2.8,  5.4,0.008,    0.0, 122.7, 122.7,   0.0,  -0.7,  -0.6,,,  26.8, -85.1,  26.8,1016.109,,1017.570,,,, 41.1, 50.1,  83.5, -39.1
IWG110hz,2017-06-20T14:21:50.202, 26.078796, -80.154190,,  -19.1,  -78.0,,  0.0,  2.2,  4.8,0.006,   -0.0, 122.7, 122.7,   0.0,  -0.7,  -0.6,,,  27.0, -84.7,  27.0,1016.109,,1017.610,,,, 41.1, 50.1,  83.5, -39.1
IWG110hz,2017-06-20T14:22:00.200, 26.078796, -80.154190,,  -19.3,  -77.0,,  0.0,  5.4,  9.9,0.015,    0.0, 122.7, 122.7,   0.0,  -0.7,  -0.6,,,  26.8, -84.7,  26.8,1016.073,,1017.610,,,, 41.0, 50.1,  83.6, -39.1
IWG110hz,2017-06-20T14:22:10.202, 26.078796, -80.154190,,  -18.9,  -77.0,,  0.0,  6.3, 10.9,0.018,    0.0, 122.7, 122.7,   0.0,  -0.7,  -0.6,,,  26.8, -85.1,  26.8,1016.073,,1017.529,,,, 41.0, 50.2,  83.6, -39.1
IWG110hz,2017-06-20T14:22:20.200, 26.078796, -80.154190,,  -19.1,  -77.0,,  0.0,  4.7,  8.8,0.014,    0.0, 122.7, 122.7,   0.0,  -0.7,  -0.6,,,  26.5, -85.0,  26.5,1016.073,,1017.244,,,, 41.0, 50.2,  83.6, -39.1
IWG110hz,2017-06-20T14:22:30.201, 26.078796, -80.154190,,  -19.8,  -78.0,,  0.0,  5.7,  9.7,0.016,   -0.0, 122.7, 122.7,   0.0,  -0.7,  -0.6,,,  27.0, -84.8,  27.0,1016.109,,1017.326,,,, 41.0, 50.2,  83.6, -39.0
IWG110hz,2017-06-20T14:22:40.201, 26.078796, -80.154190,,  -20.0,  -78.0,,  0.0,  3.5,  6.3,0.010,   -0.0, 122.7, 122.7,   0.0,  -0.7,  -0.6,,,  27.0, -84.8,  27.0,1016.109,,1017.326,,,, 41.0, 50.2,  83.6, -39.1
IWG110hz,2017-06-20T14:22:50.200, 26.078796, -80.154190,,  -20.1,  -78.0,,  0.0,  2.5,  5.0,0.007,   -0.0, 122.7, 122.7,   0.0,  -0.7,  -0.6,,,  27.2, -84.6,  27.2,1016.109,,1017.244,,,, 41.0, 50.2,  83.6, -39.1
IWG110hz,2017-06-20T14:23:00.201, 26.078796, -80.154190,,  -19.8,  -79.0,,  0.0,  3.2,  6.3,0.009,    0.0, 122.7, 122.7,   0.0,  -0.7,  -0.6,,,  27.2, -85.1,  27.2,1016.146,,1017.204,,,, 41.0, 50.2,  83.6, -39.1
IWG110hz,2017-06-20T14:23:10.201, 26.078796, -80.154190,,  -19.6,  -78.0,,  0.0,  6.0, 10.8,0.017,    0.0, 122.7, 122.7,   0.0,  -0.7,  -0.6,,,  27.0, -84.8,  27.0,1016.109,,1017.326,,,, 40.8, 50.4,  83.7, -39.0
IWG110hz,2017-06-20T14:23:20.200, 26.078796, -80.154190,,  -19.9,  -79.0,,  0.0,  3.5,  6.4,0.010,    0.0, 122.7, 122.7,   0.0,  -0.7,  -0.6,,,  27.0, -85.1,  27.0,1016.146,,1017.366,,,, 40.8, 50.4,  83.7, -39.0
IWG110hz,2017-06-20T14:23:30.201, 26.078796, -80.154190,,  -19.7,  -78.0,,  0.0,  3.8,  7.1,0.011,   -0.0, 122.7, 122.7,   0.0,  -0.7,  -0.6,,,  26.5, -85.1,  26.5,1016.109,,1017.366,,,, 40.7, 50.5,  83.7, -39.0
IWG110hz,2017-06-20T14:23:40.200, 26.078796, -80.154190,,  -19.1,  -79.0,,  0.0,  4.8,  9.2,0.014,   -0.0, 122.7, 122.7,   0.0,  -0.7,  -0.6,,,  27.0, -84.7,  27.0,1016.146,,1017.285,,,, 40.7, 50.5,  83.7, -38.9
IWG110hz,2017-06-20T14:23:50.202, 26.078796, -80.154190,,  -18.8,  -78.0,,  0.0,  3.2,  5.8,0.009,    0.0, 122.7, 122.7,   0.0,  -0.7,  -0.6,,,  26.8, -85.0,  26.8,1016.109,,1017.407,,,, 40.6, 50.5,  83.7, -38.9
IWG110hz,2017-06-20T14:24:00.202, 26.078796, -80.154190,,  -19.4,  -78.0,,  0.0,  7.3, 13.2,0.021,   -0.0, 122.7, 122.7,   0.0,  -0.7,  -0.6,,,  27.0, -85.0,  27.0,1016.109,,1017.366,,,, 40.6, 50.5,  83.7, -38.9
IWG110hz,2017-06-20T14:24:10.201, 26.078796, -80.154190,,  -20.8,  -78.0,,  0.0,  4.7,  9.0,0.014,   -0.0, 122.7, 122.7,   0.0,  -0.7,  -0.6,,,  26.5, -85.0,  26.5,1016.109,,1017.366,,,, 40.6, 50.5,  83.7, -38.9
IWG110hz,2017-06-20T14:24:20.201, 26.078796, -80.154190,,  -21.6,  -78.0,,  0.0,  6.3, 11.0,0.018,    0.0, 122.7, 122.7,   0.0,  -0.7,  -0.6,,,  26.8, -85.2,  26.8,1016.109,,1017.570,,,, 40.6, 50.5,  83.7, -38.9
IWG110hz,2017-06-20T14:24:30.201, 26.078796, -80.154190,,  -21.9,  -78.0,,  0.0,  6.0, 10.5,0.017,   -0.0, 122.7, 122.7,   0.0,  -0.7,  -0.6,,,  26.8, -84.7,  26.8,1016.109,,1017.814,,,, 40.6, 50.5,  83.7, -38.9
IWG110hz,2017-06-20T14:24:40.202, 26.078796, -80.154362,,  -21.7,  -78.0,,  0.0,  5.7,  9.7,0.016,   -0.0, 122.7, 122.7,   0.0,  -0.7,  -0.6,,,  26.8, -84.8,  26.8,1016.109,,1017.814,,,, 40.5, 50.7,  83.8, -38.9
IWG110hz,2017-06-20T14:24:50.202, 26.078796, -80.154362,,  -21.9,  -78.0,,  0.0,  4.4,  8.1,0.013,   -0.0, 122.7, 122.7,   0.0,  -0.7,  -0.6,,,  26.8, -84.8,  26.8,1016.109,,1017.814,,,, 40.4, 50.7,  83.8, -38.8
IWG110hz,2017-06-20T14:25:00.201, 26.078796, -80.154362,,  -22.1,  -78.0,,  0.0,  4.4,  7.9,0.013,   -0.0, 122.7, 122.7,   0.0,  -0.7,  -0.6,,,  26.8, -85.2,  26.8,1016.109,,1017.895,,,, 40.4, 50.8,  83.8, -38.8
IWG110hz,2017-06-20T14:25:10.201, 26.078796, -80.154362,,  -21.9,  -78.0,,  0.0,  4.4,  7.9,0.013,   -0.0, 122.7, 122.7,   0.0,  -0.7,  -0.6,,,  26.8, -84.0,  26.8,1016.109,,1017.814,,,, 40.3, 50.8,  83.8, -38.8
IWG110hz,2017-06-20T14:25:20.202, 26.078796, -80.154362,,  -21.4,  -77.0,,  0.0,  4.4,  8.0,0.013,    0.0, 122.7, 122.7,   0.0,  -0.7,  -0.6,,,  26.8, -85.3,  26.8,1016.073,,1018.139,,,, 40.3, 50.9,  83.8, -38.8
IWG110hz,2017-06-20T14:25:30.200, 26.078796, -80.154362,,  -21.0,  -77.0,,  0.0,  2.8,  5.6,0.008,    0.0, 122.7, 122.7,   0.0,  -0.7,  -0.6,,,  26.5, -85.3,  26.5,1016.073,,1018.139,,,, 40.3, 50.9,  83.8, -38.8
IWG110hz,2017-06-20T14:25:40.202, 26.078796, -80.154190,,  -20.7,  -78.0,,  0.0,  2.5,  5.1,0.007,   -0.0, 122.7, 122.7,   0.0,  -0.7,  -0.6,,,  27.0, -85.1,  27.0,1016.109,,1018.180,,,, 40.2, 50.9,  83.9, -38.8
IWG110hz,2017-06-20T14:25:50.201, 26.078796, -80.154190,,  -20.4,  -79.0,,  0.0,  4.8,  8.7,0.014,   -0.0, 122.7, 122.7,   0.0,  -0.7,  -0.6,,,  27.2, -85.3,  27.2,1016.146,,1018.628,,,, 40.2, 51.0,  83.9, -38.8
IWG110hz,2017-06-20T14:26:00.201, 26.078796, -80.154190,,  -20.1,  -78.0,,  0.0,  3.8,  6.9,0.011,    0.0, 122.7, 122.7,   0.0,  -0.7,  -0.6,,,  27.2, -85.3,  27.2,1016.109,,1018.709,,,, 40.2, 51.0,  83.9, -38.8
IWG110hz,2017-06-20T14:26:10.202, 26.078796, -80.154190,,  -19.7,  -79.0,,  0.0,  3.5,  6.4,0.010,   -0.0, 122.7, 122.7,   0.0,  -0.7,  -0.6,,,  27.2, -85.3,  27.2,1016.146,,1018.709,,,, 40.1, 51.0,  83.9, -38.7
IWG110hz,2017-06-20T14:26:20.200, 26.078796, -80.154190,,  -19.2,  -78.0,,  0.0,  3.8,  7.2,0.011,    0.0, 122.7, 122.7,   0.0,  -0.7,  -0.6,,,  27.2, -85.6,  27.2,1016.109,,1018.709,,,, 40.1, 51.1,  83.9, -38.7
IWG110hz,2017-06-20T14:26:30.202, 26.078796, -80.154190,,  -19.1,  -78.0,,  0.0,  3.5,  6.3,0.010,    0.0, 122.7, 122.7,   0.0,  -0.7,  -0.6,,,  27.2, -85.7,  27.2,1016.109,,1018.709,,,, 40.0, 51.1,  83.9, -38.7
IWG110hz,2017-06-20T14:26:40.202, 26.078796, -80.154190,,  -19.7,  -78.0,,  0.0,  3.8,  7.2,0.011,   -0.0, 122.7, 122.7,   0.0,  -0.7,  -0.6,,,  26.8, -85.5,  26.8,1016.109,,1018.465,,,, 40.0, 51.2,  83.9, -38.7
IWG110hz,2017-06-20T14:26:50.200, 26.078796, -80.154190,,  -19.5,  -79.0,,  0.0,  0.9,  2.0,0.003,    0.0, 122.7, 122.7,   0.0,  -0.7,  -0.6,,,  27.0, -85.5,  27.0,1016.146,,1018.587,,,, 40.0, 51.2,  84.0, -38.7
IWG110hz,2017-06-20T14:27:00.201, 26.078796, -80.154190,,  -19.3,  -79.0,,  0.0,  1.6,  2.9,0.005,    0.0, 122.7, 122.7,   0.0,  -0.7,  -0.5,,,  27.5, -85.5,  27.5,1016.146,,1018.587,,,, 39.9, 51.2,  84.0, -38.7
IWG110hz,2017-06-20T14:27:10.201, 26.078796, -80.154190,,  -19.6,  -79.0,,  0.0,  3.5,  6.6,0.010,   -0.0, 122.7, 122.7,   0.0,  -0.7,  -0.5,,,  27.5, -85.6,  27.5,1016.146,,1018.587,,,, 39.9, 51.3,  84.0, -38.7
IWG110hz,2017-06-20T14:27:20.201, 26.078796, -80.154190,,  -20.3,  -79.0,,  0.0,  5.4,  9.8,0.015,    0.0, 122.7, 122.7,   0.0,  -0.7,  -0.5,,,  27.5, -85.7,  27.5,1016.146,,1018.872,,,, 39.9, 51.3,  84.0, -38.7